Location: Chittendens Corners
(41.2320°N, 81.4940°W)
Time: 09:32:23
(UTC+00:00)

Cosmos 2082 - Pass Details

Date: 29 October 2020
Orbit: 832 x 857 km, 71.0° (Epoch: 26 November)

Event Time Altitude Azimuth Distance (km) Brightness Sun altitude
Rises 23:17:09 0° 342° (NNW) 3,435 7.0 -10.5°
Reaches altitude 10° 23:19:48 10° 351° (N) 2,497 6.2 -11.0°
Maximum altitude 23:25:08 38° 59° (ENE) 1,286 4.2 -12.0°
Drops below altitude 10° 23:30:25 10° 126° (SE) 2,483 5.7 -12.9°
Enters shadow 23:31:45 - 131° (SE) 2,948 6.1 -13.2°
